[[{"header":{"parameterUnit":"m.s-1","parameterCategory":1,"la1":30.2991,"la2":30.254,"lo1":-89.0895,"lo2":-89.0444,"dy":0.0017,"dx":0.0017,"nx":28,"ny":28,"refTime":"2025-12-04T09:00:00:Z","depth":0,"parameterNumber":2,"parameterNumberName":"U-component_of_WINDS"},"data":[0,0,0,0,0,0,0,0,0,0,0,0,0,0,0,0,0,0,0,0,0,0,0,0,0,0,0,0,0,0,0,0,0,0,0,0,0,0,0,0,0,0,0,0,0,0,0,0,0,0,0,0,0,0,0,0,0,0,1.5902,1.5903,0,1.5924,1.5925,1.5925,1.59,1.5899,1.5898,1.5897,1.5919,1.592,1.5921,0,0,0,0,0,0,0,0,0,0,0,0,0,1.584,1.5841,1.5902,1.5903,1.5903,1.5924,1.5925,1.5925,1.59,1.5899,1.5898,1.5897,1.5918,1.592,1.5922,0,0,0,0,0,0,0,0,0,0,0,0,0,1.5865,1.5842,1.5902,1.5893,1.5892,1.5924,1.5925,1.5925,1.59,1.5899,1.5897,1.5896,1.5918,1.592,1.5922,1.5963,0,0,1.5928,1.5929,0,0,0,0,0,0,0,0,1.5864,1.5867,1.5894,1.5894,1.5893,1.5908,1.591,1.5938,1.59,1.5897,1.5897,1.5895,1.5916,1.5918,1.5925,1.5964,1.5965,1.5929,1.593,1.5931,1.5932,0,0,0,0,0,0,0,1.5862,1.5866,1.5911,1.5895,1.5894,1.5888,1.589,1.5916,1.5914,1.5897,1.5896,1.5899,1.5916,1.5923,1.5926,1.5966,1.5929,1.5931,1.5932,1.5933,1.6043,1.6044,0,0,0,0,0,0,1.5861,1.5865,1.591,1.5912,1.5875,1.589,1.5893,1.5905,1.5914,1.5914,1.59,1.5897,1.592,1.5923,1.5926,1.5977,1.5931,1.5933,1.5934,1.6041,1.6043,1.6045,0,0,0,0,0,0,1.586,1.5865,1.5909,1.5888,1.5893,1.5893,1.5907,1.5906,1.5914,1.5916,1.5915,1.5908,1.5919,1.5923,1.5955,1.5978,1.5934,1.5936,1.6039,1.6042,1.6044,1.6078,0,0,0,0,0,0,1.5858,1.5865,1.5881,1.5888,1.5894,1.5937,1.5908,1.5907,1.5918,1.5915,1.5923,1.5924,1.5919,1.5952,1.5957,1.598,1.5938,1.6037,1.604,1.6043,1.6075,1.6082,1.6087,0,0,0,0,0,1.5856,1.5889,1.5881,1.5887,1.5914,1.5939,1.5942,1.5936,1.5919,1.5935,1.5937,1.5923,1.5974,1.5955,1.5961,1.5985,1.6036,1.6039,1.6043,1.6073,1.608,1.6087,0,0,0,0,0,0,1.5882,1.5889,1.5881,1.5918,1.5928,1.5934,1.5954,1.5944,1.5959,1.5956,1.5947,1.595,1.5984,1.5987,1.5966,1.6027,1.6002,1.6007,1.6023,1.6031,1.6036,1.6035,1.5939,0,0,0,0,0,1.5893,1.5913,1.5918,1.5949,1.5955,1.5954,1.5964,1.5959,1.5969,1.5973,1.5977,1.5988,1.6006,1.6019,1.6036,1.6076,1.6078,1.6095,1.6101,1.6106,1.6111,1.6134,1.6142,1.6057,1.6057,1.6056,0,0,1.5913,1.592,1.5933,1.5955,1.5962,1.5983,1.5957,1.598,1.5996,1.5977,1.6007,1.6011,1.6022,1.6059,1.6075,1.6063,1.6135,1.6111,1.6115,1.6116,1.6139,1.6147,1.6154,1.6059,1.6059,1.6058,0,0,1.5962,1.5969,1.5997,1.6005,1.6017,1.6017,1.6024,1.6032,1.6034,1.6065,1.6051,1.6071,1.6102,1.6111,1.612,1.6176,1.6164,1.6182,1.6213,1.6236,1.6243,1.6249,1.627,1.6277,1.6186,1.6186,1.6186,0,1.5987,1.6018,1.6012,1.6037,1.6048,1.6032,1.6061,1.6069,1.6086,1.6094,1.608,1.6122,1.6128,1.6168,1.6182,1.6189,1.6197,1.618,1.6242,1.6248,1.6254,1.6274,1.6282,1.6188,1.6188,1.6188,1.6188,0,1.6048,1.607,1.6091,1.6109,1.6123,1.6149,1.6148,1.6162,1.6156,1.6158,1.619,1.6198,1.6217,1.6226,1.622,1.6266,1.6258,1.6244,1.6219,1.6264,1.6283,1.629,1.6191,1.6191,1.619,1.6189,0,0,1.6112,1.6129,1.6137,1.6146,1.6159,1.6176,1.6203,1.6223,1.6235,1.6248,1.6271,1.63,1.6287,1.6297,1.6293,1.6313,1.6359,1.6296,1.6297,1.6308,1.6411,1.6422,1.6431,1.6351,1.6353,1.6354,1.6411,0,1.6162,1.6209,1.6206,1.625,1.6271,1.6258,1.6282,1.6293,1.6296,1.6314,1.6317,1.6338,1.6319,1.6326,1.6345,1.6349,1.6379,1.6345,1.6373,1.6374,1.6371,1.6441,1.6452,1.6505,1.6418,1.6419,1.642,0,1.6226,1.6243,1.629,1.6302,1.6311,1.6332,1.6351,1.6369,1.6382,1.6383,1.6396,1.6389,1.6417,1.6392,1.6431,1.6408,1.642,1.6423,1.6425,1.6428,1.64,1.6446,1.6521,1.653,1.6431,1.643,1.6429,0,1.627,1.6304,1.6337,1.6345,1.6359,1.6375,1.6382,1.6394,1.6407,1.6424,1.6432,1.6452,1.6463,1.6479,1.6477,1.6459,1.6518,1.6492,1.652,1.652,1.6533,1.6532,1.6612,1.654,1.6539,1.6539,1.6539,0,1.6326,1.6355,1.6357,1.6377,1.641,1.6407,1.6439,1.6445,1.6456,1.6478,1.6467,1.6488,1.6485,1.6506,1.6505,1.6539,1.6543,1.6545,1.6545,1.6547,1.6547,1.6554,1.6551,1.6541,1.6541,1.6541,1.654,0,1.638,1.6382,1.6417,1.6429,1.6433,1.6457,1.6468,1.6487,1.649,1.6518,1.6524,1.6528,1.6553,1.6554,1.6581,1.6581,1.6622,1.6617,1.6618,1.6617,1.6645,1.6643,1.6733,1.6745,1.6665,1.6665,1.6666,0,1.6416,1.6438,1.6454,1.6468,1.6476,1.6499,1.6513,1.6511,1.6525,1.6544,1.6562,1.6585,1.6604,1.6644,1.665,1.6672,1.6668,1.6698,1.6671,1.6673,1.6669,1.6668,1.6671,1.6703,1.6704,1.6705,1.6705,0,1.6479,1.648,1.65,1.6522,1.6539,1.6555,1.6571,1.6583,1.6583,1.6601,1.6626,1.6641,1.667,1.6695,1.6716,1.6724,1.6715,1.6714,1.6722,1.6724,1.6724,1.6725,1.6633,1.6712,1.6711,1.6711,1.671,1.671,1.6526,1.6546,1.6561,1.6584,1.6596,1.6612,1.6631,1.6638,1.6659,1.6683,1.6681,1.671,1.6725,1.6753,1.6763,1.6786,1.6775,1.6786,1.6789,1.6792,1.6795,1.672,1.679,1.6789,1.6789,1.6789,1.6789,0,1.659,1.6599,1.6621,1.6644,1.6663,1.6654,1.6672,1.6688,1.6714,1.6729,1.6748,1.6779,1.6803,1.6812,1.6835,1.6852,1.6849,1.6859,1.6857,1.686,1.6803,1.6794,1.6861,1.6861,1.6861,1.6861,1.6861,1.6861,1.6625,1.666,1.6663,1.6704,1.6713,1.6741,1.6752,1.6767,1.6779,1.6814,1.6834,1.684,1.6853,1.6878,1.6901,1.6903,1.6912,1.6924,1.6924,1.6871,1.6863,1.6857,1.6849,1.6926,1.6926,1.698,1.698,1.698]},{"header":{"parameterUnit":"m.s-1","parameterCategory":1,"la1":30.2991,"la2":30.254,"lo1":-89.0895,"lo2":-89.0444,"dy":0.0017,"dx":0.0017,"nx":28,"ny":28,"refTime":"2025-12-04T09:00:00:Z","depth":0,"parameterNumber":3,"parameterNumberName":"V-component_of_WINDS"},"data":[0,0,0,0,0,0,0,0,0,0,0,0,0,0,0,0,0,0,0,0,0,0,0,0,0,0,0,0,0,0,0,0,0,0,0,0,0,0,0,0,0,0,0,0,0,0,0,0,0,0,0,0,0,0,0,0,0,0,-5.4955,-5.4956,0,-5.5085,-5.5087,-5.5088,-5.5061,-5.5059,-5.5057,-5.5054,-5.5182,-5.5187,-5.5193,0,0,0,0,0,0,0,0,0,0,0,0,0,-5.4676,-5.4681,-5.4955,-5.4956,-5.4958,-5.5085,-5.5087,-5.5089,-5.5062,-5.5059,-5.5056,-5.5053,-5.518,-5.5186,-5.5193,0,0,0,0,0,0,0,0,0,0,0,0,0,-5.4801,-5.4683,-5.4954,-5.496,-5.4962,-5.5085,-5.5087,-5.5089,-5.5063,-5.5059,-5.5055,-5.5052,-5.5178,-5.5186,-5.5194,-5.5317,0,0,-5.522,-5.5223,0,0,0,0,0,0,0,0,-5.4794,-5.4811,-5.4958,-5.496,-5.4962,-5.5054,-5.5035,-5.5165,-5.5063,-5.5024,-5.5054,-5.505,-5.5141,-5.5153,-5.5185,-5.5323,-5.5329,-5.522,-5.5226,-5.5229,-5.5232,0,0,0,0,0,0,0,-5.4785,-5.4805,-5.5006,-5.496,-5.4963,-5.4954,-5.4968,-5.506,-5.5101,-5.5027,-5.5026,-5.5042,-5.5142,-5.5177,-5.5188,-5.5331,-5.522,-5.5228,-5.5233,-5.5236,-5.5577,-5.558,0,0,0,0,0,0,-5.4775,-5.4798,-5.5002,-5.501,-5.4868,-5.4962,-5.4977,-5.5028,-5.51,-5.5108,-5.5045,-5.504,-5.5164,-5.5178,-5.5192,-5.5341,-5.5229,-5.5237,-5.5242,-5.5573,-5.5577,-5.5582,0,0,0,0,0,0,-5.4769,-5.4794,-5.4997,-5.4904,-5.4929,-5.4971,-5.5027,-5.5032,-5.5067,-5.5113,-5.512,-5.5073,-5.5162,-5.518,-5.5287,-5.5345,-5.5241,-5.5248,-5.5568,-5.5574,-5.558,-5.564,0,0,0,0,0,0,-5.4761,-5.4792,-5.484,-5.4905,-5.4934,-5.5092,-5.5031,-5.5037,-5.5082,-5.5078,-5.5142,-5.5149,-5.516,-5.5274,-5.5295,-5.5355,-5.5255,-5.5563,-5.5571,-5.5578,-5.5633,-5.5647,-5.566,0,0,0,0,0,-5.4752,-5.4851,-5.4843,-5.4868,-5.4996,-5.5095,-5.5111,-5.5125,-5.5087,-5.5136,-5.5165,-5.5147,-5.5336,-5.5286,-5.5309,-5.5372,-5.5559,-5.5568,-5.5577,-5.5627,-5.5645,-5.5659,0,0,0,0,0,0,-5.4789,-5.4859,-5.4852,-5.4975,-5.503,-5.509,-5.5152,-5.5143,-5.5207,-5.52,-5.5211,-5.5226,-5.5335,-5.5364,-5.5307,-5.5495,-5.5442,-5.5456,-5.5472,-5.5489,-5.5502,-5.5492,-5.5262,0,0,0,0,0,-5.4813,-5.4889,-5.4945,-5.5049,-5.5077,-5.511,-5.5153,-5.5159,-5.5215,-5.5237,-5.5275,-5.5328,-5.5399,-5.5445,-5.5514,-5.5637,-5.565,-5.5692,-5.5705,-5.5716,-5.5728,-5.5795,-5.5813,-5.5611,-5.5611,-5.5611,0,0,-5.486,-5.4908,-5.4955,-5.5057,-5.51,-5.5177,-5.5129,-5.5212,-5.5269,-5.5249,-5.5353,-5.5382,-5.5442,-5.5558,-5.5611,-5.5585,-5.5786,-5.5727,-5.5736,-5.5742,-5.5806,-5.5825,-5.5842,-5.5617,-5.5616,-5.5615,0,0,-5.4986,-5.5031,-5.5122,-5.5167,-5.5233,-5.5255,-5.5277,-5.5339,-5.5359,-5.5464,-5.545,-5.5516,-5.5639,-5.5683,-5.5721,-5.5864,-5.5849,-5.5886,-5.5955,-5.602,-5.6036,-5.605,-5.6101,-5.6119,-5.5898,-5.5898,-5.5898,0,-5.5037,-5.5154,-5.5169,-5.5255,-5.53,-5.5288,-5.5379,-5.5421,-5.5505,-5.5536,-5.5507,-5.5661,-5.57,-5.5826,-5.5861,-5.5893,-5.5917,-5.5878,-5.6033,-5.6048,-5.6061,-5.6109,-5.6128,-5.5902,-5.5901,-5.5901,-5.5901,0,-5.5213,-5.5294,-5.536,-5.5444,-5.5496,-5.5584,-5.5611,-5.5662,-5.5663,-5.5687,-5.5793,-5.5841,-5.5918,-5.5948,-5.595,-5.6074,-5.6057,-5.6031,-5.5977,-5.6084,-5.613,-5.6148,-5.5908,-5.5906,-5.5905,-5.5904,0,0,-5.5365,-5.5458,-5.5482,-5.552,-5.5593,-5.5655,-5.5742,-5.582,-5.5863,-5.5922,-5.5994,-5.6099,-5.6075,-5.6118,-5.6124,-5.6182,-5.6292,-5.6149,-5.615,-5.6173,-5.6431,-5.645,-5.6471,-5.6283,-5.6286,-5.6289,-5.6426,0,-5.5498,-5.5654,-5.567,-5.5808,-5.5883,-5.5873,-5.5949,-5.6,-5.6025,-5.6091,-5.6117,-5.6191,-5.6155,-5.6181,-5.6238,-5.6267,-5.6344,-5.6257,-5.6348,-5.6351,-5.6333,-5.6495,-5.6515,-5.6642,-5.6444,-5.6447,-5.6449,0,-5.5673,-5.574,-5.5886,-5.5949,-5.5981,-5.6049,-5.6122,-5.6186,-5.6243,-5.6257,-5.6307,-5.6305,-5.6393,-5.6337,-5.6457,-5.6398,-5.6436,-5.6456,-5.6461,-5.6469,-5.6406,-5.6507,-5.6683,-5.6702,-5.6477,-5.6475,-5.6473,0,-5.5769,-5.5895,-5.5999,-5.6032,-5.6108,-5.6156,-5.619,-5.6244,-5.629,-5.6353,-5.6383,-5.6455,-5.6494,-5.6548,-5.6565,-5.6523,-5.6684,-5.663,-5.6696,-5.6696,-5.673,-5.6727,-5.6914,-5.6756,-5.6756,-5.6755,-5.6755,0,-5.5915,-5.6005,-5.6044,-5.6107,-5.6207,-5.6225,-5.6322,-5.6353,-5.6402,-5.647,-5.6465,-5.6528,-5.6548,-5.6614,-5.6628,-5.6724,-5.6742,-5.6754,-5.6757,-5.6755,-5.6753,-5.6779,-5.677,-5.676,-5.6759,-5.6758,-5.6757,0,-5.6039,-5.6069,-5.6181,-5.6245,-5.6263,-5.6334,-5.6387,-5.6448,-5.6472,-5.6558,-5.6579,-5.6617,-5.6695,-5.6718,-5.6811,-5.682,-5.6933,-5.6928,-5.6914,-5.6914,-5.6979,-5.6972,-5.7188,-5.7216,-5.7041,-5.7042,-5.7044,0,-5.613,-5.6199,-5.6271,-5.6318,-5.6354,-5.6429,-5.6476,-5.6495,-5.6545,-5.6617,-5.6668,-5.6746,-5.6809,-5.6934,-5.6968,-5.7039,-5.7034,-5.7105,-5.7045,-5.704,-5.7034,-5.703,-5.7036,-5.7116,-5.7118,-5.7119,-5.7121,0,-5.6288,-5.6299,-5.637,-5.6445,-5.6503,-5.6563,-5.662,-5.6658,-5.6685,-5.6741,-5.6822,-5.6871,-5.6967,-5.7044,-5.7116,-5.7148,-5.7139,-5.714,-5.7158,-5.7156,-5.7146,-5.7152,-5.6944,-5.7134,-5.7133,-5.7132,-5.7131,-5.713,-5.6398,-5.6459,-5.6519,-5.6597,-5.6643,-5.6697,-5.6758,-5.6791,-5.6859,-5.6941,-5.6947,-5.7035,-5.709,-5.7187,-5.7223,-5.729,-5.7269,-5.7296,-5.7303,-5.731,-5.7315,-5.7136,-5.7303,-5.7303,-5.7302,-5.7302,-5.7302,0,-5.6555,-5.6594,-5.6666,-5.6747,-5.6809,-5.6797,-5.686,-5.6912,-5.699,-5.7043,-5.7106,-5.7199,-5.7274,-5.7314,-5.7388,-5.7434,-5.7431,-5.7452,-5.7448,-5.7456,-5.733,-5.7306,-5.7453,-5.7453,-5.7453,-5.7453,-5.7453,-5.7453,-5.6644,-5.6747,-5.6765,-5.689,-5.6928,-5.7016,-5.7053,-5.7102,-5.7145,-5.725,-5.7313,-5.7339,-5.7387,-5.7465,-5.7532,-5.7542,-5.7568,-5.7592,-5.7599,-5.748,-5.7465,-5.745,-5.7427,-5.7598,-5.7598,-5.772,-5.7721,-5.7722]}]]